This is the latest recevied weather packets stored in our database for station/object KC5TIL. If no packets are shown the sender has not sent any weather packets the latest 10 day(s).
| Time | Temp. | Humidity | Pressure | Rain* | Wind** | Luminosity | Snow |
|---|---|---|---|---|---|---|---|
| 1777586935 | 16.67° C | 82% | 1014.8 hPa | 0 mm | - | 85 W/m² | - |
| 1777586631 | 17.22° C | 81% | 1014.9 hPa | 0 mm | - | 136 W/m² | - |
| 1777586327 | 16.67° C | 83% | 1014.6 hPa | 0 mm | - | 120 W/m² | - |
| 1777586025 | 17.22° C | 82% | 1014.8 hPa | 0 mm | - | 137 W/m² | - |
| 1777585724 | 16.67° C | 82% | 1015.1 hPa | 0 mm | - | 119 W/m² | - |
| 1777585419 | 16.67° C | 84% | 1015.4 hPa | 0 mm | - | 146 W/m² | - |
| 1777585114 | 16.67° C | 83% | 1015.4 hPa | 0 mm | - | 98 W/m² | - |
| 1777584811 | 16.11° C | 83% | 1015.2 hPa | 0 mm | - | 103 W/m² | - |
| 1777584509 | 16.11° C | 84% | 1015.6 hPa | 0 mm | - | 84 W/m² | - |
| 1777584205 | 16.67° C | 83% | 1015.8 hPa | 0 mm | - | 72 W/m² | - |
| 1777583904 | 16.67° C | 84% | 1015.7 hPa | 0 mm | - | 49 W/m² | - |
| 1777583600 | 16.67° C | 84% | 1015.4 hPa | 0 mm | - | 48 W/m² | - |
| 1777583299 | 16.67° C | 84% | 1015.2 hPa | 0 mm | - | 42 W/m² | - |
| 1777582994 | 16.67° C | 85% | 1015.3 hPa | 0 mm | - | 42 W/m² | - |
| 1777582692 | 16.67° C | 85% | 1015.4 hPa | 0 mm | - | 40 W/m² | - |
| 1777582386 | 16.67° C | 85% | 1015.4 hPa | 0 mm | - | 38 W/m² | - |
| 1777582085 | 16.67° C | 86% | 1015.6 hPa | 0 mm | - | 41 W/m² | - |
| 1777581780 | 16.67° C | 86% | 1015.5 hPa | 0 mm | - | 43 W/m² | - |
| 1777581478 | 16.11° C | 87% | 1015.4 hPa | 0 mm | - | 42 W/m² | - |
| 1777581173 | 16.11° C | 88% | 1015.1 hPa | 0 mm | - | 43 W/m² | - |
| 1777580868 | 16.11° C | 88% | 1015.6 hPa | 0 mm | - | 35 W/m² | - |
| 1777580563 | 16.11° C | 88% | 1015.4 hPa | 0 mm | - | 29 W/m² | - |
| 1777580259 | 16.11° C | 89% | 1015.3 hPa | 0 mm | - | 34 W/m² | - |
| 1777579957 | 16.11° C | 88% | 1015.4 hPa | 0 mm | - | 35 W/m² | - |
| 1777579652 | 16.11° C | 89% | 1015.5 hPa | 0 mm | - | 33 W/m² | - |
* Rain latest hour (hover to see other rain measurements)
** Current wind speed in m/s (hover to see current wind gust speed)